SIA851 ZGGG-WSSS

Flight info

Callsign SIA851
Flight time N/A
Altitude 38000
Route VIBOS9 VIBOS R473 SIERA DCT EPDOS L642 EPKAL/K0902F380 L642 ESPOB/N0482F380 Q801 ESBUM Q802 ELALO ELALO1A
Aircraft A388/J-SADE2E3FGHIJ3J4J5M1RWXYZ/LB1D1

Departure

Time N/A
Airport Guangzhou Baiyun International Airport (ZGGG)

Arrival

Time 2026-05-05 15:08
Airport Singapore Changi Airport (WSSS)
Time Latitude Longitude Altitude Speed Heading
2026-05-05 14:51 1.67012 104.10606 9957 ft 296 kts 175°
2026-05-05 14:52 1.64957 104.10702 9956 ft 296 kts 178°
2026-05-05 14:52 1.62886 104.10719 9954 ft 295 kts 180°
2026-05-05 14:52 1.60839 104.10796 9954 ft 295 kts 172°
2026-05-05 14:52 1.58801 104.11099 9954 ft 296 kts 171°
2026-05-05 14:53 1.56764 104.11398 9954 ft 295 kts 171°
2026-05-05 14:53 1.54757 104.11690 9954 ft 296 kts 171°
2026-05-05 14:53 1.52719 104.11987 9953 ft 296 kts 171°
2026-05-05 14:53 1.50684 104.12285 9953 ft 296 kts 171°
2026-05-05 14:54 1.48640 104.12584 9941 ft 297 kts 171°
2026-05-05 14:54 1.46603 104.12814 9676 ft 298 kts 180°
2026-05-05 14:54 1.44541 104.12529 9157 ft 300 kts 197°
2026-05-05 14:55 1.39126 104.10225 7721 ft 302 kts 203°
2026-05-05 14:55 1.37188 104.09405 7219 ft 302 kts 203°
2026-05-05 14:55 1.35250 104.08587 6734 ft 302 kts 203°
2026-05-05 14:56 1.33311 104.07768 6261 ft 302 kts 203°
2026-05-05 14:56 1.31404 104.06962 6016 ft 292 kts 203°
2026-05-05 14:56 1.29570 104.06186 5956 ft 283 kts 203°
2026-05-05 14:56 1.27797 104.05437 5952 ft 279 kts 203°
2026-05-05 14:57 1.26004 104.04680 5958 ft 280 kts 203°
2026-05-05 14:57 1.24209 104.03921 5938 ft 280 kts 203°
2026-05-05 14:57 1.22406 104.03158 5669 ft 283 kts 203°
2026-05-05 14:57 1.20585 104.02385 5165 ft 285 kts 203°
2026-05-05 14:58 1.18751 104.01606 4676 ft 287 kts 205°
2026-05-05 14:58 1.17055 104.00571 4169 ft 286 kts 212°
2026-05-05 14:58 1.15223 103.99932 3968 ft 277 kts 185°
2026-05-05 14:58 1.13395 103.99917 3917 ft 254 kts 180°
2026-05-05 14:59 1.11696 103.99925 3926 ft 236 kts 180°
2026-05-05 14:59 1.10090 103.99936 3927 ft 229 kts 180°
2026-05-05 14:59 1.08491 103.99964 3930 ft 230 kts 180°
2026-05-05 14:59 1.06892 103.99936 3921 ft 229 kts 193°
2026-05-05 15:00 1.05460 103.99281 3885 ft 229 kts 223°
2026-05-05 15:00 1.04781 103.98485 3737 ft 228 kts 243°
2026-05-05 15:00 1.04442 103.96456 3359 ft 225 kts 284°
2026-05-05 15:00 1.05079 103.95041 3082 ft 225 kts 300°
2026-05-05 15:01 1.05964 103.93778 2781 ft 223 kts 319°
2026-05-05 15:01 1.07330 103.93086 2514 ft 223 kts 348°
2026-05-05 15:01 1.08861 103.92830 2427 ft 223 kts 350°
2026-05-05 15:01 1.10380 103.92596 2422 ft 219 kts 350°
2026-05-05 15:02 1.11877 103.92358 2434 ft 217 kts 350°
2026-05-05 15:02 1.13317 103.92119 2419 ft 201 kts 350°
2026-05-05 15:02 1.14638 103.91900 2426 ft 191 kts 350°
2026-05-05 15:02 1.15939 103.91698 2428 ft 192 kts 351°
2026-05-05 15:03 1.17266 103.91512 2415 ft 193 kts 359°
2026-05-05 15:03 1.18555 103.91728 2431 ft 183 kts 12°
2026-05-05 15:03 1.19777 103.92013 2418 ft 179 kts 13°
2026-05-05 15:03 1.20996 103.92297 2422 ft 179 kts 13°
2026-05-05 15:04 1.22181 103.92571 2436 ft 170 kts 13°
2026-05-05 15:04 1.23298 103.92820 2393 ft 158 kts 13°
2026-05-05 15:04 1.24319 103.93135 2219 ft 149 kts 20°
2026-05-05 15:04 1.25260 103.93526 2034 ft 148 kts 24°
2026-05-05 15:05 1.27156 103.94347 1649 ft 148 kts 24°
2026-05-05 15:05 1.28089 103.94755 1452 ft 147 kts 24°
2026-05-05 15:05 1.29030 103.95158 1278 ft 146 kts 24°
2026-05-05 15:06 1.29948 103.95557 1089 ft 145 kts 24°
2026-05-05 15:06 1.30872 103.95956 899 ft 145 kts 24°
2026-05-05 15:06 1.31793 103.96357 724 ft 143 kts 24°
2026-05-05 15:06 1.32703 103.96751 560 ft 142 kts 25°
2026-05-05 15:07 1.33598 103.97153 410 ft 143 kts 27°
2026-05-05 15:07 1.34473 103.97595 202 ft 138 kts 21°
2026-05-05 15:07 1.35356 103.97938 41 ft 133 kts 22°
2026-05-05 15:07 1.36064 103.98236 36 ft 85 kts 21°
2026-05-05 15:08 1.36425 103.98390 35 ft 27 kts 22°
2026-05-05 15:08 1.36574 103.98455 35 ft 22 kts 27°
2026-05-05 15:08 1.36688 103.98549 35 ft 21 kts 47°
2026-05-05 15:08 1.36726 103.98593 35 ft 0 kts 54°
2026-05-05 15:09 1.36740 103.98613 35 ft 2 kts 54°
2026-05-05 15:09 1.36766 103.98648 35 ft 9 kts 54°
2026-05-05 15:09 1.36812 103.98709 35 ft 13 kts 51°
2026-05-05 15:09 1.36882 103.98774 35 ft 15 kts 28°
2026-05-05 15:10 1.36939 103.98801 35 ft 4 kts 21°
2026-05-05 15:10 1.36970 103.98813 35 ft 1 kts 22°
2026-05-05 15:10 1.36992 103.98826 35 ft 6 kts 42°
2026-05-05 15:10 1.37004 103.98867 35 ft 7 kts 106°
2026-05-05 15:11 1.36979 103.98928 35 ft 12 kts 112°
2026-05-05 15:11 1.36943 103.99015 35 ft 15 kts 112°
2026-05-05 15:11 1.36912 103.99088 35 ft 11 kts 113°
2026-05-05 15:11 1.36880 103.99163 35 ft 13 kts 114°
2026-05-05 15:12 1.36838 103.99258 35 ft 16 kts 114°
2026-05-05 15:12 1.36791 103.99366 35 ft 16 kts 114°
2026-05-05 15:12 1.36743 103.99475 35 ft 18 kts 113°
2026-05-05 15:12 1.36692 103.99595 35 ft 15 kts 113°
2026-05-05 15:13 1.36662 103.99658 35 ft 11 kts 129°
2026-05-05 15:13 1.36599 103.99671 35 ft 11 kts 202°
2026-05-05 15:13 1.36509 103.99635 35 ft 16 kts 202°
2026-05-05 15:13 1.36401 103.99589 35 ft 16 kts 207°
2026-05-05 15:14 1.36343 103.99526 35 ft 10 kts 233°
2026-05-05 15:14 1.36299 103.99467 35 ft 9 kts 233°
2026-05-05 15:14 1.36248 103.99421 35 ft 12 kts 206°
2026-05-05 15:14 1.36168 103.99387 35 ft 12 kts 202°
2026-05-05 15:15 1.36106 103.99361 35 ft 7 kts 203°
2026-05-05 15:15 1.36043 103.99334 35 ft 13 kts 202°
2026-05-05 15:15 1.35945 103.99293 35 ft 18 kts 202°
2026-05-05 15:15 1.35847 103.99253 35 ft 11 kts 202°
2026-05-05 15:16 1.35773 103.99243 35 ft 5 kts 160°
2026-05-05 15:16 1.35745 103.99262 35 ft 6 kts 144°
2026-05-05 15:16 1.35727 103.99275 35 ft 2 kts 143°
2026-05-05 15:16 1.35720 103.99280 35 ft 0 kts 144°